Weather History for LIVE - October, 2012

Change the Weather History Date:

Wednesday, October 31, 2012

  Actual Average Record
Temperature  
Mean Temperature 28 °F -  
Max Temperature 33 °F 48 °F 59 °F (2005)
Min Temperature 24 °F 33 °F 24 °F (2003)
Degree Days  
Heating Degree Days 36    
Moisture  
Dew Point 20 °F    
Average Humidity 66    
Maximum Humidity 87    
Minimum Humidity 51    
Precipitation  
Precipitation 0.00 in - - ()
Sea Level Pressure  
Sea Level Pressure 29.63 in    
Wind  
Wind Speed 5 mph ()    
Max Wind Speed 10 mph    
Max Gust Speed -    
Visibility 4.9 miles    
Events      
Averages and records for this station are not official NWS values.
T = Trace of Precipitation, MM = Missing Value Source: Averaged Metar Reports

Daily Weather History Graph

Daily Weather History Graph

Search for Another Location

Airport or City:

Trip Planner

Search our weather history database for the weather conditions in past years. The results will help you decide how hot, cold, wet, or windy it might be!

Date:

Astronomy

Oct. 31, 2012 Rise Set
Actual Time 6:59 AM CET 5:03 PM CET
Civil Twilight 6:27 AM CET 5:34 PM CET
Nautical Twilight 5:51 AM CET 6:10 PM CET
Astronomical Twilight 5:16 AM CET 6:45 PM CET
Moon 5:55 PM CET (10/31) 8:31 AM CET (10/31)
Length of Visible Light 11h 07m
Length of Day
10h 04m
Full, 98% of the Moon is Illuminated
Oct 31
Full
Nov 7
Last Quarter
Nov 13
New
Nov 20
First Quarter
Nov 28
Full

Hourly Weather History & Observations

Time (CET) Temp. Windchill Dew Point Humidity Pressure Visibility Wind Dir Wind Speed Gust Speed Precip Events Conditions
12:55 AM 26.6 °F 22.6 °F 17.6 °F 69% 29.74 in - NNE 3.5 mph - N/A   Clear
1:55 AM 26.6 °F - 15.8 °F 64% 29.74 in - Calm Calm - N/A   Clear
4:55 AM 24.8 °F - 17.6 °F 74% 29.74 in - Calm Calm - N/A   Clear
5:55 AM 24.8 °F - 17.6 °F 74% 29.74 in - Calm Calm - N/A   Clear
6:55 AM 26.6 °F 20.0 °F 17.6 °F 69% 29.74 in - WSW 5.8 mph - N/A   Clear
7:55 AM 26.6 °F 21.2 °F 17.6 °F 69% 29.74 in - South 4.6 mph - N/A   Clear
8:55 AM 28.4 °F 20.4 °F 19.4 °F 69% 29.74 in - South 8.1 mph - N/A   Clear
9:55 AM 32.0 °F 24.8 °F 15.8 °F 51% 29.74 in 6.2 mi South 8.1 mph - N/A   Scattered Clouds
10:55 AM 33.8 °F 27.7 °F 19.4 °F 56% 29.74 in 6.2 mi South 6.9 mph - N/A   Mostly Cloudy
11:55 AM 33.8 °F 27.0 °F 19.4 °F 56% 29.74 in 6.2 mi South 8.1 mph - N/A   Mostly Cloudy
12:55 PM 33.8 °F 27.7 °F 17.6 °F 52% 29.74 in 6.2 mi South 6.9 mph - N/A   Mostly Cloudy
1:55 PM 33.8 °F 27.0 °F 17.6 °F 52% 29.68 in 6.2 mi South 8.1 mph - N/A   Mostly Cloudy
2:55 PM 33.8 °F 27.0 °F 19.4 °F 56% 29.59 in 6.2 mi South 8.1 mph - N/A   Mostly Cloudy
3:55 PM 33.8 °F 26.4 °F 21.2 °F 60% 29.59 in 6.2 mi South 9.2 mph - N/A   Mostly Cloudy
4:55 PM 33.8 °F 27.7 °F 21.2 °F 60% 29.56 in 6.2 mi SSW 6.9 mph - N/A   Mostly Cloudy
6:55 PM 32.0 °F 24.8 °F 23.0 °F 69% 29.53 in 6.2 mi SSW 8.1 mph - N/A   Mostly Cloudy
7:55 PM 32.0 °F 23.6 °F 23.0 °F 69% 29.50 in 6.2 mi SSW 10.4 mph - N/A   Mostly Cloudy
8:55 PM 32.0 °F 23.6 °F 28.4 °F 87% 29.44 in 2.5 mi South 10.4 mph - N/A   Overcast
9:55 PM 32.0 °F 23.6 °F 26.6 °F 80% 29.44 in 1.2 mi SSW 10.4 mph - N/A   Overcast
10:55 PM 32.0 °F 23.6 °F 26.6 °F 80% 29.36 in 1.2 mi SSW 10.4 mph - N/A   Overcast
11:55 PM 32.0 °F 24.2 °F 26.6 °F 80% 29.33 in 1.2 mi SSW 9.2 mph - N/A   Overcast